Year,Month,Day,Hour,Minute,Value (Times are PST for temperature in C)
2018,04,26,00,00,11.60
2018,04,26,00,01,11.60
2018,04,26,00,02,11.50
2018,04,26,00,03,11.50
2018,04,26,00,04,11.50
2018,04,26,00,05,11.50
2018,04,26,00,06,11.50
2018,04,26,00,07,11.40
2018,04,26,00,08,11.40
2018,04,26,00,09,11.40
2018,04,26,00,10,11.40
2018,04,26,00,11,11.40
2018,04,26,00,12,11.40
2018,04,26,00,13,11.40
2018,04,26,00,14,11.40
2018,04,26,00,15,11.40
2018,04,26,00,16,11.40
2018,04,26,00,17,11.40
2018,04,26,00,18,11.40
2018,04,26,00,19,11.40
2018,04,26,00,20,11.50
2018,04,26,00,21,11.50
2018,04,26,00,22,11.60
2018,04,26,00,23,11.60
2018,04,26,00,24,11.60
2018,04,26,00,25,11.60
2018,04,26,00,26,11.60
2018,04,26,00,27,11.60
2018,04,26,00,28,11.60
2018,04,26,00,29,11.60
2018,04,26,00,30,11.60
2018,04,26,00,31,11.60
2018,04,26,00,32,11.50
2018,04,26,00,33,11.50
2018,04,26,00,34,11.50
2018,04,26,00,35,11.40
2018,04,26,00,36,11.40
2018,04,26,00,37,11.40
2018,04,26,00,38,11.40
2018,04,26,00,39,11.40
2018,04,26,00,40,11.40
2018,04,26,00,41,11.40
2018,04,26,00,42,11.40
2018,04,26,00,43,11.40
2018,04,26,00,44,11.40
2018,04,26,00,45,11.30
2018,04,26,00,46,11.30
2018,04,26,00,47,11.20
2018,04,26,00,48,11.20
2018,04,26,00,49,11.10
2018,04,26,00,50,11.10
2018,04,26,00,51,11.10
2018,04,26,00,52,11.10
2018,04,26,00,53,11.00
2018,04,26,00,54,11.00
2018,04,26,00,55,11.00
2018,04,26,00,56,11.00
2018,04,26,00,57,11.00
2018,04,26,00,58,11.00
2018,04,26,00,59,11.00
2018,04,26,01,00,11.00
2018,04,26,01,01,11.00
2018,04,26,01,02,11.10
2018,04,26,01,03,11.10
2018,04,26,01,04,11.10
2018,04,26,01,05,11.00
2018,04,26,01,06,11.00
2018,04,26,01,07,11.00
2018,04,26,01,08,11.00
2018,04,26,01,09,10.90
2018,04,26,01,10,10.90
2018,04,26,01,11,10.90
2018,04,26,01,12,10.90
2018,04,26,01,13,11.00
2018,04,26,01,14,11.00
2018,04,26,01,15,11.00
2018,04,26,01,16,11.00
2018,04,26,01,17,11.00
2018,04,26,01,18,11.00
2018,04,26,01,19,11.00
2018,04,26,01,20,11.00
2018,04,26,01,21,11.10
2018,04,26,01,22,11.10
2018,04,26,01,23,11.00
2018,04,26,01,24,11.00
2018,04,26,01,25,11.10
2018,04,26,01,26,11.00
2018,04,26,01,27,11.00
2018,04,26,01,28,11.00
2018,04,26,01,29,11.00
2018,04,26,01,30,10.90
2018,04,26,01,31,10.90
2018,04,26,01,32,10.90
2018,04,26,01,33,10.90
2018,04,26,01,34,10.80
2018,04,26,01,35,10.80
2018,04,26,01,36,10.80
2018,04,26,01,37,10.80
2018,04,26,01,38,10.70
2018,04,26,01,39,10.70
2018,04,26,01,40,10.70
2018,04,26,01,41,10.70
2018,04,26,01,42,10.70
2018,04,26,01,43,10.60
2018,04,26,01,44,10.60
2018,04,26,01,45,10.60
2018,04,26,01,46,10.50
2018,04,26,01,47,10.50
2018,04,26,01,48,10.40
2018,04,26,01,49,10.40
2018,04,26,01,50,10.40
2018,04,26,01,51,10.30
2018,04,26,01,52,10.30
2018,04,26,01,53,10.30
2018,04,26,01,54,10.30
2018,04,26,01,55,10.30
2018,04,26,01,56,10.20
2018,04,26,01,57,10.20
2018,04,26,01,58,10.20
2018,04,26,01,59,10.20
2018,04,26,02,00,10.20
2018,04,26,02,01,10.20
2018,04,26,02,02,10.10
2018,04,26,02,03,10.10
2018,04,26,02,04,10.10
2018,04,26,02,05,10.10
2018,04,26,02,06,10.10
2018,04,26,02,07,10.10
2018,04,26,02,08,10.10
2018,04,26,02,09,10.00
2018,04,26,02,10,10.00
2018,04,26,02,11,10.00
2018,04,26,02,12,10.00
2018,04,26,02,13,9.90
2018,04,26,02,14,9.90
2018,04,26,02,15,9.90
2018,04,26,02,16,9.90
2018,04,26,02,17,9.90
2018,04,26,02,18,9.90
2018,04,26,02,19,9.80
2018,04,26,02,20,9.80
2018,04,26,02,21,9.80
2018,04,26,02,22,9.80
2018,04,26,02,23,9.80
2018,04,26,02,24,9.80
2018,04,26,02,25,9.80
2018,04,26,02,26,9.80
2018,04,26,02,27,9.80
2018,04,26,02,28,9.80
2018,04,26,02,29,9.70
2018,04,26,02,30,9.70
2018,04,26,02,31,9.70
2018,04,26,02,32,9.70
2018,04,26,02,33,9.60
2018,04,26,02,34,9.60
2018,04,26,02,35,9.60
2018,04,26,02,36,9.60
2018,04,26,02,37,9.60
2018,04,26,02,38,9.50
2018,04,26,02,39,9.50
2018,04,26,02,40,9.50
2018,04,26,02,41,9.50
2018,04,26,02,42,9.40
2018,04,26,02,43,9.40
2018,04,26,02,44,9.40
2018,04,26,02,45,9.40
2018,04,26,02,46,9.50
2018,04,26,02,47,9.50
2018,04,26,02,48,9.50
2018,04,26,02,49,9.50
2018,04,26,02,50,9.50
2018,04,26,02,51,9.50
2018,04,26,02,52,9.50
2018,04,26,02,53,9.60
2018,04,26,02,54,9.60
2018,04,26,02,55,9.60
2018,04,26,02,56,9.70
2018,04,26,02,57,9.70
2018,04,26,02,58,9.70
2018,04,26,02,59,9.70
2018,04,26,03,00,9.70
2018,04,26,03,01,9.70
2018,04,26,03,02,9.70
2018,04,26,03,03,9.80
2018,04,26,03,04,9.80
2018,04,26,03,05,9.80
2018,04,26,03,06,9.90
2018,04,26,03,07,9.90
2018,04,26,03,08,9.90
2018,04,26,03,09,10.00
2018,04,26,03,10,10.00
2018,04,26,03,11,10.00
2018,04,26,03,12,10.00
2018,04,26,03,13,10.00
2018,04,26,03,14,10.10
2018,04,26,03,15,10.10
2018,04,26,03,16,10.10
2018,04,26,03,17,10.10
2018,04,26,03,18,10.20
2018,04,26,03,19,10.20
2018,04,26,03,20,10.20
2018,04,26,03,21,10.30
2018,04,26,03,22,10.30
2018,04,26,03,23,10.30
2018,04,26,03,24,10.30
2018,04,26,03,25,10.30
2018,04,26,03,26,10.30
2018,04,26,03,27,10.30
2018,04,26,03,28,10.30
2018,04,26,03,29,10.30
2018,04,26,03,30,10.30
2018,04,26,03,31,10.30
2018,04,26,03,32,10.30
2018,04,26,03,33,10.30
2018,04,26,03,34,10.30
2018,04,26,03,35,10.30
2018,04,26,03,36,10.30
2018,04,26,03,37,10.30
2018,04,26,03,38,10.30
2018,04,26,03,39,10.30
2018,04,26,03,40,10.20
2018,04,26,03,41,10.20
2018,04,26,03,42,10.20
2018,04,26,03,43,10.10
2018,04,26,03,44,10.10
2018,04,26,03,45,10.10
2018,04,26,03,46,10.00
2018,04,26,03,47,10.00
2018,04,26,03,48,9.90
2018,04,26,03,49,9.90
2018,04,26,03,50,9.80
2018,04,26,03,51,9.80
2018,04,26,03,52,9.70
2018,04,26,03,53,9.70
2018,04,26,03,54,9.70
2018,04,26,03,55,9.60
2018,04,26,03,56,9.60
2018,04,26,03,57,9.60
2018,04,26,03,58,9.60
2018,04,26,03,59,9.60
2018,04,26,04,00,9.60
2018,04,26,04,01,9.50
2018,04,26,04,02,9.50
2018,04,26,04,03,9.50
2018,04,26,04,04,9.50
2018,04,26,04,05,9.50
2018,04,26,04,06,9.50
2018,04,26,04,07,9.60
2018,04,26,04,08,9.70
2018,04,26,04,09,9.80
2018,04,26,04,10,9.90
2018,04,26,04,11,10.10
2018,04,26,04,12,10.20
2018,04,26,04,13,10.30
2018,04,26,04,14,10.40
2018,04,26,04,15,10.50
2018,04,26,04,16,10.60
2018,04,26,04,17,10.60
2018,04,26,04,18,10.70
2018,04,26,04,19,10.80
2018,04,26,04,20,10.80
2018,04,26,04,21,10.90
2018,04,26,04,22,11.00
2018,04,26,04,23,11.20
2018,04,26,04,24,11.30
2018,04,26,04,25,11.40
2018,04,26,04,26,11.40
2018,04,26,04,27,11.40
2018,04,26,04,28,11.50
2018,04,26,04,29,11.60
2018,04,26,04,30,11.60
2018,04,26,04,31,11.70
2018,04,26,04,32,11.80
2018,04,26,04,33,11.80
2018,04,26,04,34,11.80
2018,04,26,04,35,11.80
2018,04,26,04,36,11.80
2018,04,26,04,37,11.90
2018,04,26,04,38,11.90
2018,04,26,04,39,12.00
2018,04,26,04,40,12.00
2018,04,26,04,41,12.10
2018,04,26,04,42,12.10
2018,04,26,04,43,12.10
2018,04,26,04,44,12.10
2018,04,26,04,45,12.10
2018,04,26,04,46,12.10
2018,04,26,04,47,12.10
2018,04,26,04,48,12.10
2018,04,26,04,49,12.10
2018,04,26,04,50,12.10
2018,04,26,04,51,12.10
2018,04,26,04,52,12.10
2018,04,26,04,53,12.10
2018,04,26,04,54,12.10
2018,04,26,04,55,12.10
2018,04,26,04,56,12.20
2018,04,26,04,57,12.20
2018,04,26,04,58,12.20
2018,04,26,04,59,12.20
2018,04,26,05,00,12.20
2018,04,26,05,01,12.20
2018,04,26,05,02,12.20
2018,04,26,05,03,12.20
2018,04,26,05,04,12.20
2018,04,26,05,05,12.10
2018,04,26,05,06,12.10
2018,04,26,05,07,12.10
2018,04,26,05,08,12.10
2018,04,26,05,09,12.10
2018,04,26,05,10,12.10
2018,04,26,05,11,12.10
2018,04,26,05,12,12.10
2018,04,26,05,13,12.20
2018,04,26,05,14,12.20
2018,04,26,05,15,12.20
2018,04,26,05,16,12.20
2018,04,26,05,17,12.20
2018,04,26,05,18,12.20
2018,04,26,05,19,12.20
2018,04,26,05,20,12.20
2018,04,26,05,21,12.20
2018,04,26,05,22,12.20
2018,04,26,05,23,12.20
2018,04,26,05,24,12.20
2018,04,26,05,25,12.20
2018,04,26,05,26,12.30
2018,04,26,05,27,12.30
2018,04,26,05,28,12.30
2018,04,26,05,29,12.30
2018,04,26,05,30,12.40
2018,04,26,05,31,12.40
2018,04,26,05,32,12.40
2018,04,26,05,33,12.40
2018,04,26,05,34,12.50
2018,04,26,05,35,12.50
2018,04,26,05,36,12.60
2018,04,26,05,37,12.60
2018,04,26,05,38,12.60
2018,04,26,05,39,12.60
2018,04,26,05,40,12.60
2018,04,26,05,41,12.60
2018,04,26,05,42,12.60
2018,04,26,05,43,12.60
2018,04,26,05,44,12.60
2018,04,26,05,45,12.60
2018,04,26,05,46,12.60
2018,04,26,05,47,12.50
2018,04,26,05,48,12.50
2018,04,26,05,49,12.50
2018,04,26,05,50,12.50
2018,04,26,05,51,12.50
2018,04,26,05,52,12.50
2018,04,26,05,53,12.50
2018,04,26,05,54,12.40
2018,04,26,05,55,12.40
2018,04,26,05,56,12.50
2018,04,26,05,57,12.50
2018,04,26,05,58,12.50
2018,04,26,05,59,12.60
2018,04,26,06,00,12.60
2018,04,26,06,01,12.60
2018,04,26,06,02,12.40
2018,04,26,06,03,12.30
2018,04,26,06,04,12.40
2018,04,26,06,05,12.40
2018,04,26,06,06,12.40
2018,04,26,06,07,12.40
2018,04,26,06,08,12.40
2018,04,26,06,09,12.40
2018,04,26,06,10,12.40
2018,04,26,06,11,12.40
2018,04,26,06,12,12.40
2018,04,26,06,13,12.40
2018,04,26,08,12,16.10
2018,04,26,08,13,16.10
2018,04,26,08,14,16.20
2018,04,26,08,15,16.20
2018,04,26,08,16,16.20
2018,04,26,08,17,16.20
2018,04,26,08,18,16.20
2018,04,26,08,19,16.30
2018,04,26,08,20,16.30
2018,04,26,08,21,16.30
2018,04,26,08,22,16.30
2018,04,26,08,23,16.30
2018,04,26,08,24,16.30
2018,04,26,08,25,16.30
2018,04,26,08,26,16.30
2018,04,26,08,27,16.30
2018,04,26,08,28,16.30
2018,04,26,08,29,16.30
2018,04,26,08,30,16.30
2018,04,26,08,31,16.30
2018,04,26,08,32,16.30
2018,04,26,08,33,16.20
2018,04,26,08,34,16.20
2018,04,26,08,35,16.20
2018,04,26,08,36,16.20
2018,04,26,08,37,16.20
2018,04,26,08,38,16.20
2018,04,26,08,39,16.20
2018,04,26,08,40,16.20
2018,04,26,08,41,16.20
2018,04,26,08,42,16.20
2018,04,26,08,43,16.20
2018,04,26,08,44,16.20
2018,04,26,08,45,16.20
2018,04,26,08,46,16.20
2018,04,26,08,47,16.30
2018,04,26,08,48,16.30
2018,04,26,08,49,16.30
2018,04,26,08,50,16.40
2018,04,26,08,51,16.40
2018,04,26,08,52,16.40
2018,04,26,08,53,16.50
2018,04,26,08,54,16.50
2018,04,26,08,55,16.50
2018,04,26,08,56,16.60
2018,04,26,08,57,16.60
2018,04,26,08,58,16.70
2018,04,26,08,59,16.80
2018,04,26,09,00,16.90
2018,04,26,09,01,16.90
2018,04,26,09,02,16.90
2018,04,26,09,03,16.90
2018,04,26,09,04,16.90
2018,04,26,09,05,16.90
2018,04,26,09,06,17.00
2018,04,26,09,07,17.00
2018,04,26,09,08,17.10
2018,04,26,09,09,17.10
2018,04,26,09,10,17.10
2018,04,26,09,11,17.20
2018,04,26,09,12,17.20
2018,04,26,09,13,17.30
2018,04,26,09,14,17.30
2018,04,26,09,15,17.40
2018,04,26,09,16,17.40
2018,04,26,09,17,17.50
2018,04,26,09,18,17.50
2018,04,26,09,19,17.60
2018,04,26,09,20,17.70
2018,04,26,09,21,17.70
2018,04,26,09,22,17.80
2018,04,26,09,23,17.80
2018,04,26,09,24,17.80
2018,04,26,09,25,17.90
2018,04,26,09,26,17.90
2018,04,26,09,27,17.90
2018,04,26,09,28,17.90
2018,04,26,09,29,17.90
2018,04,26,09,30,17.90
2018,04,26,09,31,18.00
2018,04,26,09,32,18.10
2018,04,26,09,33,18.10
2018,04,26,09,34,18.10
2018,04,26,09,35,18.20
2018,04,26,09,36,18.20
2018,04,26,09,37,18.20
2018,04,26,09,38,18.20
2018,04,26,09,39,18.20
2018,04,26,09,40,18.30
2018,04,26,09,41,18.30
2018,04,26,09,42,18.30
2018,04,26,09,43,18.30
2018,04,26,09,44,18.40
2018,04,26,09,45,18.40
2018,04,26,09,46,18.40
2018,04,26,09,47,18.40
2018,04,26,09,48,18.40
2018,04,26,09,49,18.40
2018,04,26,09,50,18.40
2018,04,26,09,51,18.50
2018,04,26,09,52,18.50
2018,04,26,09,53,18.60
2018,04,26,09,54,18.60
2018,04,26,09,55,18.70
2018,04,26,09,56,18.80
2018,04,26,09,57,18.80
2018,04,26,09,58,18.80
2018,04,26,09,59,18.80
2018,04,26,10,00,18.80
2018,04,26,10,01,18.80
2018,04,26,10,02,18.80
2018,04,26,10,03,18.80
2018,04,26,10,04,18.80
2018,04,26,10,05,18.80
2018,04,26,10,06,18.70
2018,04,26,10,07,18.60
2018,04,26,10,08,18.60
2018,04,26,10,09,18.50
2018,04,26,10,10,18.40
2018,04,26,10,11,18.40
2018,04,26,10,12,18.30
2018,04,26,10,13,18.30
2018,04,26,10,14,18.40
2018,04,26,10,15,18.50
2018,04,26,10,16,18.50
2018,04,26,10,17,18.50
2018,04,26,10,18,18.50
2018,04,26,10,19,18.50
2018,04,26,10,20,18.40
2018,04,26,10,21,18.40
2018,04,26,10,22,18.50
2018,04,26,10,23,18.60
2018,04,26,10,24,18.60
2018,04,26,10,25,18.60
2018,04,26,10,26,18.70
2018,04,26,10,27,18.70
2018,04,26,10,28,18.70
2018,04,26,10,29,18.70
2018,04,26,10,30,18.70
2018,04,26,10,31,18.70
2018,04,26,10,32,18.70
2018,04,26,10,33,18.70
2018,04,26,10,34,18.70
2018,04,26,10,35,18.70
2018,04,26,10,36,18.70
2018,04,26,10,37,18.70
2018,04,26,10,38,18.70
2018,04,26,10,39,18.70
2018,04,26,10,40,18.80
2018,04,26,10,41,18.80
2018,04,26,10,42,18.70
2018,04,26,10,43,18.80
2018,04,26,10,44,18.80
2018,04,26,10,45,18.80
2018,04,26,10,46,18.80
2018,04,26,10,47,18.90
2018,04,26,10,48,19.00
2018,04,26,10,49,19.10
2018,04,26,10,50,19.10
2018,04,26,10,51,19.10
2018,04,26,10,52,19.10
2018,04,26,10,53,19.20
2018,04,26,10,54,19.20
2018,04,26,10,55,19.20
2018,04,26,10,56,19.10
2018,04,26,10,57,19.10
2018,04,26,10,58,19.10
2018,04,26,10,59,19.20
2018,04,26,11,00,19.20
2018,04,26,11,01,19.30
2018,04,26,11,02,19.40
2018,04,26,11,03,19.30
2018,04,26,11,04,19.30
2018,04,26,11,05,19.30
2018,04,26,11,06,19.30
2018,04,26,11,07,19.30
2018,04,26,11,08,19.30
2018,04,26,11,09,19.20
2018,04,26,11,10,19.30
2018,04,26,11,11,19.30
2018,04,26,11,12,19.30
2018,04,26,11,13,19.40
2018,04,26,11,14,19.50
2018,04,26,11,15,19.60
2018,04,26,11,16,19.60
2018,04,26,11,17,19.70
2018,04,26,11,18,19.70
2018,04,26,11,19,19.70
2018,04,26,11,20,19.70
2018,04,26,11,21,19.70
2018,04,26,11,22,19.80
2018,04,26,11,23,19.70
2018,04,26,11,24,19.70
2018,04,26,11,25,19.70
2018,04,26,11,26,19.70
2018,04,26,11,27,19.70
2018,04,26,11,28,19.80
2018,04,26,11,29,19.80
2018,04,26,11,30,19.80
2018,04,26,11,31,19.90
2018,04,26,11,32,19.90
2018,04,26,11,33,19.80
2018,04,26,11,34,19.90
2018,04,26,11,35,19.90
2018,04,26,11,36,19.90
2018,04,26,11,37,19.90
2018,04,26,11,38,20.00
2018,04,26,11,39,20.00
2018,04,26,11,40,20.00
2018,04,26,11,41,20.00
2018,04,26,11,42,20.10
2018,04,26,11,43,20.10
2018,04,26,11,44,20.10
2018,04,26,11,45,20.00
2018,04,26,11,46,20.00
2018,04,26,11,47,19.90
2018,04,26,11,48,20.00
2018,04,26,11,49,20.00
2018,04,26,11,50,20.10
2018,04,26,11,51,20.20
2018,04,26,11,52,20.20
2018,04,26,11,53,20.10
2018,04,26,11,54,20.10
2018,04,26,11,55,20.10
2018,04,26,11,56,20.20
2018,04,26,11,57,20.20
2018,04,26,11,58,20.30
2018,04,26,11,59,20.30
2018,04,26,12,00,20.30
2018,04,26,12,01,20.30
2018,04,26,12,02,20.30
2018,04,26,12,03,20.40
2018,04,26,12,04,20.40
2018,04,26,12,05,20.40
2018,04,26,12,06,20.40
2018,04,26,12,07,20.40
2018,04,26,12,08,20.50
2018,04,26,12,09,20.60
2018,04,26,12,10,20.60
2018,04,26,12,11,20.60
2018,04,26,12,12,20.60
2018,04,26,12,13,20.60
2018,04,26,12,14,20.60
2018,04,26,12,15,20.60
2018,04,26,12,16,20.60
2018,04,26,12,17,20.50
2018,04,26,12,18,20.60
2018,04,26,12,19,20.70
2018,04,26,12,20,20.70
2018,04,26,12,21,20.70
2018,04,26,12,22,20.70
2018,04,26,12,23,20.70
2018,04,26,12,24,20.70
2018,04,26,12,25,20.60
2018,04,26,12,26,20.70
2018,04,26,12,27,20.70
2018,04,26,12,28,20.80
2018,04,26,12,29,20.90
2018,04,26,12,30,21.10
2018,04,26,12,31,21.10
2018,04,26,12,32,21.10
2018,04,26,12,33,21.20
2018,04,26,12,34,21.20
2018,04,26,12,35,21.20
2018,04,26,12,36,21.10
2018,04,26,12,37,21.10
2018,04,26,12,38,21.10
2018,04,26,12,39,21.10
2018,04,26,12,40,21.10
2018,04,26,12,41,21.20
2018,04,26,12,42,21.20
2018,04,26,12,43,21.10
2018,04,26,12,44,21.10
2018,04,26,12,45,21.10
2018,04,26,12,46,21.10
2018,04,26,12,47,21.10
2018,04,26,12,48,21.10
2018,04,26,12,49,21.00
2018,04,26,12,50,21.10
2018,04,26,12,51,21.10
2018,04,26,12,52,21.20
2018,04,26,12,53,21.20
2018,04,26,12,54,21.30
2018,04,26,12,55,21.30
2018,04,26,12,56,21.30
2018,04,26,12,57,21.30
2018,04,26,12,58,21.30
2018,04,26,12,59,21.30
2018,04,26,13,00,21.40
2018,04,26,13,01,21.40
2018,04,26,13,02,21.40
2018,04,26,13,03,21.40
2018,04,26,13,04,21.40
2018,04,26,13,05,21.40
2018,04,26,13,06,21.50
2018,04,26,13,07,21.50
2018,04,26,13,08,21.60
2018,04,26,13,09,21.60
2018,04,26,13,10,21.60
2018,04,26,13,11,21.50
2018,04,26,13,12,21.50
2018,04,26,13,13,21.40
2018,04,26,13,14,21.40
2018,04,26,13,15,21.40
2018,04,26,13,16,21.60
2018,04,26,13,17,21.70
2018,04,26,13,18,21.90
2018,04,26,13,19,21.90
2018,04,26,13,20,21.90
2018,04,26,13,21,21.90
2018,04,26,13,22,22.00
2018,04,26,13,23,22.10
2018,04,26,13,24,22.10
2018,04,26,13,25,22.10
2018,04,26,13,26,22.10
2018,04,26,13,27,22.10
2018,04,26,13,28,22.10
2018,04,26,13,29,22.00
2018,04,26,13,30,22.00
2018,04,26,13,31,22.00
2018,04,26,13,32,22.10
2018,04,26,13,33,22.10
2018,04,26,13,34,22.10
2018,04,26,13,35,22.10
2018,04,26,13,36,22.00
2018,04,26,13,37,22.00
2018,04,26,13,38,22.00
2018,04,26,13,39,22.10
2018,04,26,13,40,22.20
2018,04,26,13,41,22.40
2018,04,26,13,42,22.50
2018,04,26,13,43,22.50
2018,04,26,13,44,22.60
2018,04,26,13,45,22.60
2018,04,26,13,46,22.50
2018,04,26,13,47,22.40
2018,04,26,13,48,22.40
2018,04,26,13,49,22.40
2018,04,26,13,50,22.50
2018,04,26,13,51,22.70
2018,04,26,13,52,22.70
2018,04,26,13,53,22.70
2018,04,26,13,54,22.50
2018,04,26,13,55,22.40
2018,04,26,13,56,22.40
2018,04,26,13,57,22.30
2018,04,26,13,58,22.20
2018,04,26,13,59,22.20
2018,04,26,14,00,22.20
2018,04,26,14,01,22.20
2018,04,26,14,02,22.20
2018,04,26,14,03,22.10
2018,04,26,14,04,22.10
2018,04,26,14,05,22.10
2018,04,26,14,06,22.10
2018,04,26,14,07,22.20
2018,04,26,14,08,22.40
2018,04,26,14,09,22.40
2018,04,26,14,10,22.50
2018,04,26,14,11,22.50
2018,04,26,14,12,22.60
2018,04,26,14,13,22.60
2018,04,26,14,14,22.60
2018,04,26,14,15,22.50
2018,04,26,14,16,22.50
2018,04,26,14,17,22.60
2018,04,26,14,18,22.60
2018,04,26,14,19,22.50
2018,04,26,14,20,22.40
2018,04,26,14,21,22.40
2018,04,26,14,22,22.50
2018,04,26,14,23,22.50
2018,04,26,14,24,22.60
2018,04,26,14,25,22.60
2018,04,26,14,26,22.60
2018,04,26,14,27,22.60
2018,04,26,14,28,22.70
2018,04,26,14,29,22.70
2018,04,26,14,30,22.70
2018,04,26,14,31,22.70
2018,04,26,14,32,22.70
2018,04,26,14,33,22.80
2018,04,26,14,34,22.90
2018,04,26,14,35,22.90
2018,04,26,14,36,22.90
2018,04,26,14,37,22.80
2018,04,26,14,38,22.70
2018,04,26,14,39,22.70
2018,04,26,14,40,22.80
2018,04,26,14,41,22.90
2018,04,26,14,42,22.90
2018,04,26,14,43,22.90
2018,04,26,14,44,22.90
2018,04,26,14,45,22.90
2018,04,26,14,46,22.80
2018,04,26,14,47,22.70
2018,04,26,14,48,22.70
2018,04,26,14,49,22.70
2018,04,26,14,50,22.80
2018,04,26,14,51,22.90
2018,04,26,14,52,23.00
2018,04,26,14,53,23.00
2018,04,26,14,54,22.90
2018,04,26,14,55,22.90
2018,04,26,14,56,22.90
2018,04,26,14,57,22.90
2018,04,26,14,58,22.90
2018,04,26,14,59,23.00
2018,04,26,15,00,23.00
2018,04,26,15,01,23.10
2018,04,26,15,02,23.10
2018,04,26,15,03,23.20
2018,04,26,15,04,23.20
2018,04,26,15,05,23.20
2018,04,26,15,06,23.30
2018,04,26,15,07,23.30
2018,04,26,15,08,23.30
2018,04,26,15,09,23.30
2018,04,26,15,10,23.20
2018,04,26,15,11,23.30
2018,04,26,15,12,23.30
2018,04,26,15,13,23.30
2018,04,26,15,14,23.30
2018,04,26,15,15,23.20
2018,04,26,15,16,23.30
2018,04,26,15,17,23.30
2018,04,26,15,18,23.30
2018,04,26,15,19,23.40
2018,04,26,15,20,23.40
2018,04,26,15,21,23.40
2018,04,26,15,22,23.40
2018,04,26,15,23,23.40
2018,04,26,15,24,23.50
2018,04,26,15,25,23.50
2018,04,26,15,26,23.60
2018,04,26,15,27,23.60
2018,04,26,15,28,23.60
2018,04,26,15,29,23.60
2018,04,26,15,30,23.50
2018,04,26,15,31,23.50
2018,04,26,15,32,23.50
2018,04,26,15,33,23.50
2018,04,26,15,34,23.60
2018,04,26,15,35,23.60
2018,04,26,15,36,23.60
2018,04,26,15,37,23.70
2018,04,26,15,38,23.70
2018,04,26,15,39,23.80
2018,04,26,15,40,23.80
2018,04,26,15,41,23.90
2018,04,26,15,42,23.90
2018,04,26,15,43,23.80
2018,04,26,15,44,23.80
2018,04,26,15,45,23.60
2018,04,26,15,46,23.50
2018,04,26,15,47,23.60
2018,04,26,15,48,23.70
2018,04,26,15,49,23.70
2018,04,26,15,50,23.70
2018,04,26,15,51,23.70
2018,04,26,15,52,23.70
2018,04,26,15,53,23.70
2018,04,26,15,54,23.70
2018,04,26,15,55,23.80
2018,04,26,15,56,23.80
2018,04,26,15,57,23.80
2018,04,26,15,58,23.80
2018,04,26,15,59,23.70
2018,04,26,16,00,23.70
2018,04,26,16,01,23.70
2018,04,26,16,02,23.70
2018,04,26,16,03,23.80
2018,04,26,16,04,23.80
2018,04,26,16,05,23.80
2018,04,26,16,06,23.80
2018,04,26,16,07,23.80
2018,04,26,16,08,23.80
2018,04,26,16,09,23.90
2018,04,26,16,10,23.90
2018,04,26,16,11,24.00
2018,04,26,16,12,24.10
2018,04,26,16,13,24.10
2018,04,26,16,14,24.10
2018,04,26,16,15,24.10
2018,04,26,16,16,24.10
2018,04,26,16,17,24.10
2018,04,26,16,18,24.10
2018,04,26,16,19,24.10
2018,04,26,16,20,24.10
2018,04,26,16,21,24.10
2018,04,26,16,22,24.10
2018,04,26,16,23,24.10
2018,04,26,16,24,24.10
2018,04,26,16,25,24.10
2018,04,26,16,26,24.20
2018,04,26,16,27,24.20
2018,04,26,16,28,24.10
2018,04,26,16,29,24.00
2018,04,26,16,30,24.10
2018,04,26,16,31,24.10
2018,04,26,16,32,24.20
2018,04,26,16,33,24.20
2018,04,26,16,34,24.20
2018,04,26,16,35,24.30
2018,04,26,16,36,24.30
2018,04,26,16,37,24.20
2018,04,26,16,38,24.20
2018,04,26,16,39,24.20
2018,04,26,16,40,24.20
2018,04,26,16,41,24.20
2018,04,26,16,42,24.20
2018,04,26,16,43,24.20
2018,04,26,16,44,24.20
2018,04,26,16,45,24.20
2018,04,26,16,46,24.20
2018,04,26,16,47,24.20
2018,04,26,16,48,24.20
2018,04,26,16,49,24.20
2018,04,26,16,50,24.20
2018,04,26,16,51,24.10
2018,04,26,16,52,24.10
2018,04,26,16,53,24.10
2018,04,26,16,54,24.20
2018,04,26,16,55,24.20
2018,04,26,16,56,24.10
2018,04,26,16,57,24.00
2018,04,26,16,58,23.90
2018,04,26,16,59,23.80
2018,04,26,17,00,23.80
2018,04,26,17,01,23.90
2018,04,26,17,02,24.00
2018,04,26,17,03,24.10
2018,04,26,17,04,24.10
2018,04,26,17,05,24.10
2018,04,26,17,06,24.10
2018,04,26,17,07,24.10
2018,04,26,17,08,24.10
2018,04,26,17,09,24.10
2018,04,26,17,10,24.10
2018,04,26,17,11,24.10
2018,04,26,17,12,24.20
2018,04,26,17,13,24.10
2018,04,26,17,14,24.00
2018,04,26,17,15,24.00
2018,04,26,17,16,23.90
2018,04,26,17,17,24.00
2018,04,26,17,18,24.00
2018,04,26,17,19,24.10
2018,04,26,17,20,24.20
2018,04,26,17,21,24.10
2018,04,26,17,22,24.10
2018,04,26,17,23,24.00
2018,04,26,17,24,24.00
2018,04,26,17,25,23.90
2018,04,26,17,26,23.90
2018,04,26,17,27,23.90
2018,04,26,17,28,24.00
2018,04,26,17,29,23.90
2018,04,26,17,30,24.00
2018,04,26,17,31,24.00
2018,04,26,17,32,24.10
2018,04,26,17,33,24.00
2018,04,26,17,34,23.90
2018,04,26,17,35,23.80
2018,04,26,17,36,23.80
2018,04,26,17,37,23.80
2018,04,26,17,38,23.80
2018,04,26,17,39,23.80
2018,04,26,17,40,23.80
2018,04,26,17,41,23.80
2018,04,26,17,42,23.80
2018,04,26,17,43,23.90
2018,04,26,17,44,23.90
2018,04,26,17,45,23.90
2018,04,26,17,46,23.90
2018,04,26,17,47,23.90
2018,04,26,17,48,23.90
2018,04,26,17,49,24.00
2018,04,26,17,50,24.00
2018,04,26,17,51,23.90
2018,04,26,17,52,23.90
2018,04,26,17,53,23.90
2018,04,26,17,54,23.90
2018,04,26,17,55,23.90
2018,04,26,17,56,23.90
2018,04,26,17,57,23.90
2018,04,26,17,58,23.90
2018,04,26,17,59,24.00
2018,04,26,18,00,24.10
2018,04,26,18,01,24.00
2018,04,26,18,02,23.90
2018,04,26,18,03,23.70
2018,04,26,18,04,23.50
2018,04,26,18,05,23.40
2018,04,26,18,06,23.20
2018,04,26,18,07,23.10
2018,04,26,18,08,22.90
2018,04,26,18,09,22.80
2018,04,26,18,10,22.70
2018,04,26,18,11,22.60
2018,04,26,18,12,22.50
2018,04,26,18,13,22.40
2018,04,26,18,14,22.30
2018,04,26,18,15,22.30
2018,04,26,18,16,22.30
2018,04,26,18,17,22.30
2018,04,26,18,18,22.30
2018,04,26,18,19,22.30
2018,04,26,18,20,22.30
2018,04,26,18,21,22.30
2018,04,26,18,22,22.30
2018,04,26,18,23,22.30
2018,04,26,18,24,22.30
2018,04,26,18,25,22.30
2018,04,26,18,26,22.40
2018,04,26,18,27,22.40
2018,04,26,18,28,22.50
2018,04,26,18,29,22.60
2018,04,26,18,30,22.60
2018,04,26,18,31,22.60
2018,04,26,18,32,22.70
2018,04,26,18,33,22.70
2018,04,26,18,34,22.70
2018,04,26,18,35,22.70
2018,04,26,18,36,22.70
2018,04,26,18,37,22.70
2018,04,26,18,38,22.70
2018,04,26,18,39,22.70
2018,04,26,18,40,22.70
2018,04,26,18,41,22.80
2018,04,26,18,42,22.80
2018,04,26,18,43,22.80
2018,04,26,18,44,22.90
2018,04,26,18,45,22.90
2018,04,26,18,46,22.90
2018,04,26,18,47,22.90
2018,04,26,18,48,22.90
2018,04,26,18,49,22.80
2018,04,26,18,50,22.70
2018,04,26,18,51,22.60
2018,04,26,18,52,22.50
2018,04,26,18,53,22.40
2018,04,26,18,54,22.40
2018,04,26,18,55,22.40
2018,04,26,18,56,22.40
2018,04,26,18,57,22.30
2018,04,26,18,58,22.30
2018,04,26,18,59,22.20
2018,04,26,19,00,22.10
2018,04,26,19,01,22.00
2018,04,26,19,02,21.90
2018,04,26,19,03,21.90
2018,04,26,19,04,21.80
2018,04,26,19,05,21.80
2018,04,26,19,06,21.70
2018,04,26,19,07,21.60
2018,04,26,19,08,21.50
2018,04,26,19,09,21.40
2018,04,26,19,10,21.30
2018,04,26,19,11,21.10
2018,04,26,19,12,20.90
2018,04,26,19,13,20.80
2018,04,26,19,14,20.70
2018,04,26,19,15,20.60
2018,04,26,19,16,20.60
2018,04,26,19,17,20.60
2018,04,26,19,18,20.60
2018,04,26,19,19,20.60
2018,04,26,19,20,20.60